FW8124 Weather Reports


time (UTC)temp
F
wind
direction
speed
knots
gust
knots
rain 1hr
in
rain 24hr
in
rain mn
in
humidity
%
barometer
mb
20260507141552 64 130 0.9 7.0 0.03 0.09 0.09 83 1010.1
20260507140053 63 0 0.0 5.2 0.05 0.09 0.09 84 1010.1
20260507134550 61 104 2.6 6.1 0.07 0.09 0.09 83 1010.0
20260507133100 60 0 1.7 5.2 0.07 0.08 0.08 82 1010.5
20260507131610 59 274 2.6 13.9 0.06 0.06 0.06 81 1010.7
20260507130052 60 325 8.7 22.6 0.03 0.03 0.03 81 1010.8
20260507124553 65 231 5.2 13.0 0.02 0.02 0.02 81 1010.8
20260507123055 65 187 5.2 10.4 0.00 0.00 0.00 80 1010.9
20260507121554 65 234 5.2 12.2 0.00 0.00 0.00 78 1010.8
20260507120058 65 204 6.1 11.3 0.00 0.00 0.00 77 1010.9
20260507114558 65 202 6.1 14.8 0.00 0.00 0.00 77 1011.3
20260507113100 65 171 6.1 13.9 0.00 0.00 0.00 77 1011.0
20260507111553 66 203 7.0 14.8 0.00 0.00 0.00 77 1011.1
20260507110053 66 198 7.0 13.9 0.00 0.00 0.00 77 1011.2
20260507104556 66 174 5.2 14.8 0.00 0.00 0.00 78 1011.4
20260507103055 65 208 6.1 13.9 0.00 0.00 0.00 79 1011.4
20260507101554 65 226 7.0 13.0 0.00 0.00 0.00 79 1011.4
20260507100049 65 198 5.2 13.9 0.00 0.00 0.00 79 1011.4
20260507094554 65 173 7.8 13.0 0.00 0.00 0.00 78 1011.3
20260507093055 65 222 6.1 15.6 0.00 0.00 0.00 77 1011.3
20260507091556 65 243 7.8 13.0 0.00 0.00 0.00 76 1011.6
20260507090054 65 205 6.1 13.9 0.00 0.00 0.00 76 1011.4
20260507084554 66 184 6.1 15.6 0.00 0.00 0.00 76 1011.3
20260507083053 66 202 7.0 12.2 0.00 0.00 0.00 76 1011.2
20260507081554 66 202 7.0 14.8 0.00 0.00 0.00 77 1011.2
20260507080115 66 234 7.0 14.8 0.00 0.00 0.00 78 1011.4
20260507074558 65 177 7.0 13.0 0.00 0.00 0.00 78 1011.2
20260507073058 65 190 7.0 15.6 0.00 0.00 0.00 78 1011.2
20260507071607 65 218 7.0 13.0 0.00 0.00 0.00 79 1011.2
20260507070055 65 198 5.2 10.4 0.00 0.00 0.00 79 1011.0
20260507064555 64 209 7.0 15.6 0.00 0.00 0.00 80 1010.7
20260507063056 64 185 7.0 14.8 0.00 0.00 0.00 81 1010.5
20260507061558 64 239 6.1 12.2 0.00 0.00 0.00 82 1010.7
20260507060059 64 184 6.1 13.0 0.00 0.00 0.00 82 1010.6
20260507054554 64 206 6.1 10.4 0.00 0.00 0.00 82 1010.6
20260507053120 64 209 5.2 10.4 0.00 0.00 0.00 82 1010.6
20260507051605 64 196 5.2 11.3 0.00 0.00 0.00 82 1010.4
20260507050059 64 194 6.1 9.6 0.00 0.00 0.00 82 1010.3
20260507044559 64 204 4.3 10.4 0.00 0.00 0.00 82 1010.2
20260507043053 64 218 6.1 12.2 0.00 0.00 0.00 81 1010.3
20260507041557 64 202 5.2 10.4 0.00 0.00 0.00 81 1010.3
20260507040100 64 143 6.1 10.4 0.00 0.00 0.00 81 1010.2
20260507034556 64 206 5.2 10.4 0.00 0.00 0.00 80 1010.1
20260507033101 64 239 5.2 10.4 0.00 0.00 0.00 80 1010.0
20260507031558 64 232 5.2 12.2 0.00 0.00 0.00 79 1010.2
20260507030059 64 196 5.2 9.6 0.00 0.00 0.00 79 1010.3
20260507024603 64 178 4.3 11.3 0.00 0.00 0.00 78 1010.4
20260507023054 64 159 1.7 6.1 0.00 0.00 0.00 78 1010.4
20260507021601 64 167 1.7 6.1 0.00 0.00 0.00 78 1010.5
20260507020053 64 130 0.9 6.1 0.00 0.00 0.00 78 1010.6
20260507014602 64 192 2.6 6.1 0.00 0.00 0.00 78 1010.9
20260507013053 64 138 1.7 7.8 0.00 0.00 0.00 79 1011.0
20260507011552 64 186 5.2 11.3 0.00 0.00 0.00 79 1010.9
20260507010104 64 196 4.3 8.7 0.00 0.00 0.00 79 1011.0
20260507004601 64 195 2.6 7.8 0.00 0.00 0.00 79 1010.8
20260507003055 64 215 4.3 8.7 0.00 0.00 0.00 79 1011.0
20260507001555 64 199 3.5 7.8 0.00 0.00 0.00 79 1010.8
20260507000051 64 180 4.3 8.7 0.00 0.00 0.00 79 1011.0
20260506234550 64 179 2.6 7.0 0.00 0.00 0.00 79 1011.1
20260506233058 64 187 2.6 7.0 0.00 0.00 0.00 78 1011.3
20260506231558 65 182 1.7 7.0 0.00 0.00 0.00 78 1011.4
20260506230053 65 194 2.6 6.1 0.00 0.00 0.00 78 1011.4
20260506224553 65 186 2.6 7.0 0.00 0.00 0.00 77 1011.4
20260506223052 65 188 2.6 7.0 0.00 0.00 0.00 77 1011.4
20260506221552 65 209 2.6 7.0 0.00 0.00 0.00 77 1011.3
20260506220056 65 256 3.5 6.1 0.00 0.00 0.00 78 1011.4
20260506214604 65 222 2.6 6.1 0.00 0.00 0.00 78 1011.5
20260506213053 65 216 2.6 8.7 0.00 0.00 0.00 78 1011.8
20260506211603 65 232 2.6 8.7 0.00 0.00 0.00 78 1011.9
20260506210056 65 246 4.3 8.7 0.00 0.00 0.00 78 1011.9
20260506204555 65 230 3.5 8.7 0.00 0.00 0.00 79 1011.7
20260506203052 65 229 2.6 9.6 0.00 0.00 0.00 78 1011.6
20260506201556 65 250 4.3 8.7 0.00 0.00 0.00 78 1011.5
20260506200103 65 258 4.3 8.7 0.00 0.00 0.00 78 1011.1
20260506194605 65 205 3.5 7.8 0.00 0.00 0.00 78 1011.0
20260506193056 65 244 4.3 10.4 0.00 0.00 0.00 77 1010.8
20260506191605 66 225 3.5 8.7 0.00 0.00 0.00 77 1010.8
20260506190056 66 242 3.5 9.6 0.00 0.00 0.00 77 1010.7
20260506184554 66 221 4.3 11.3 0.00 0.00 0.00 78 1010.5
20260506183053 66 233 4.3 8.7 0.00 0.00 0.00 77 1010.4
20260506181601 66 243 4.3 9.6 0.00 0.00 0.00 77 1010.2
20260506180115 66 219 4.3 8.7 0.00 0.00 0.00 77 1010.3
20260506174554 67 234 6.1 13.0 0.00 0.00 0.00 77 1010.2
20260506173119 67 249 5.2 11.3 0.00 0.00 0.00 77 1010.3
20260506171553 67 227 4.3 13.0 0.00 0.00 0.00 76 1010.3
20260506170053 67 210 6.1 12.2 0.00 0.00 0.00 76 1010.1
20260506164551 67 257 5.2 13.0 0.00 0.00 0.00 76 1010.2
20260506163100 67 234 6.1 13.9 0.00 0.00 0.00 74 1010.2
20260506161555 67 228 7.8 13.0 0.00 0.00 0.00 74 1010.2
20260506160053 67 207 6.1 15.6 0.00 0.00 0.00 75 1010.3
20260506154557 67 222 7.0 13.9 0.00 0.00 0.00 73 1010.2
20260506153057 68 231 8.7 16.5 0.00 0.00 0.00 72 1010.2
20260506151554 68 190 7.8 15.6 0.00 0.00 0.00 72 1010.3
20260506150100 68 192 8.7 16.5 0.00 0.00 0.00 71 1010.3
20260506144605 67 248 9.6 17.4 0.00 0.00 0.00 73 1010.5
20260506143053 69 244 6.1 12.2 0.00 0.00 0.00 72 1010.4